This demonstration page uses our WeatherBlox Daily Observations layout. Learn more.

Left ArrowRight Arrow

39.01783, -85.05884

Hourly Observations for April 16, 2018

Temp ( °F °C ) Dew Point ( °F °C ) Humidity (%) Winds ( mph kmh ) Pressure ( in mb ) Visibility ( mi km ) Precip ( " mm )
12:52 am 00:52 Cloudy with Light Rain 42 5.6 35 1.7 76 76 WNW 18 30 29.74 1007 10 16 N/A
1:52 am 01:52 Cloudy 41 5 33 0.6 73 73 WNW 15 24 29.75 1008 10 16 N/A
2:29 am 02:29 Cloudy with Drizzle 40 4.4 33 0.6 77 77 WNW 15 24 29.80 1009 10 16 N/A
2:48 am 02:48 Cloudy 39 4 34 1 81 81 W 20 31 29.80 1009 10 16 N/A
2:52 am 02:52 Cloudy 40 4.4 32 undefined 73 73 WNW 18 30 29.76 1008 10 16 N/A
3:22 am 03:22 Cloudy 40 4.4 32 undefined 73 73 WNW 14 22 29.80 1009 10 16 N/A
3:52 am 03:52 Cloudy with Drizzle 39 3.9 32 undefined 76 76 WNW 16 26 29.76 1008 10 16 N/A
4:33 am 04:33 Cloudy with Drizzle 38 3.3 33 0.6 83 83 W 14 22 29.80 1009 10 16 N/A
4:52 am 04:52 Cloudy 38 3.3 34 1.1 86 86 W 12 19 29.77 1008 10 16 N/A
5:39 am 05:39 Cloudy 37 2.8 32 undefined 82 82 W 17 28 29.80 1009 10 16 N/A
5:52 am 05:52 Cloudy 37 2.8 31 -0.6 79 79 W 20 31 29.77 1008 10 16 N/A
6:52 am 06:52 Cloudy 35 1.7 31 -0.6 85 85 W 15 24 29.78 1009 10 16 N/A
7:48 am 07:48 Cloudy with Light Snow 34 1 30 -1 87 87 W 13 20 29.83 1010 5 8 N/A
7:53 am 07:53 Cloudy with Light Snow 34 1.1 31 -0.6 89 89 W 13 20 29.83 1010 2 3 N/A
8:02 am 08:02 Cloudy with Light Snow 34 1.1 31 -0.6 89 89 W 16 26 29.83 1010 7 11 N/A
8:18 am 08:18 Cloudy 34 1.1 31 -0.6 89 89 W 16 26 29.83 1010 10 16 N/A
8:43 am 08:43 Cloudy with Light Snow 34 1.1 31 -0.6 89 89 W 14 22 29.83 1010 5 8 N/A
8:52 am 08:52 Cloudy with Light Snow 35 1.7 30 -1.1 82 82 W 17 28 29.83 1010 7 11 N/A
9:17 am 09:17 Cloudy with Light Snow 33 0.6 30 -1.1 89 89 WNW 15 24 29.85 1011 2 2 N/A
9:20 am 09:20 Cloudy with Light Snow 32 undefined 30 -1.1 92 92 WNW 17 28 29.85 1011 1 1 0.01 0.25
9:29 am 09:29 Cloudy with Light Snow 33 0.6 30 -1.1 89 89 W 15 24 29.83 1010 1 2 0.02 0.51
9:42 am 09:42 Cloudy with Light Snow 33 0.6 31 -0.6 92 92 W 14 22 29.85 1011 1 1 0.02 0.51
9:49 am 09:49 Cloudy with Light Snow 34 1 30 -1 87 87 W 15 24 29.85 1011 3 4 0.03 0.76
9:52 am 09:52 Cloudy with Light Snow 33 0.6 31 -0.6 92 92 WNW 15 24 29.83 1010 6 10 0.03 0.76
10:00 am 10:00 Windy with Snow Likely 33 0.6 30 -1.1 89 89 W 22 35 29.85 1011 2 3 N/A
10:24 am 10:24 Windy with Snow Likely 32 undefined 30 -1.1 92 92 W 20 31 29.85 1011 1 2 0.02 0.51
10:31 am 10:31 Mostly Cloudy with Light Snow 32 undefined 30 -1.1 92 92 W 16 26 29.85 1011 1 1 0.02 0.51
10:41 am 10:41 Cloudy with Light Snow 32 undefined 30 -1.1 92 92 W 17 28 29.85 1011 1 2 0.04 1.02
10:52 am 10:52 Cloudy with Light Snow 33 0.6 30 -1.1 89 89 W 17 28 29.83 1010 2 3 0.04 1.02
10:59 am 10:59 Windy with Snow Likely 33 0.6 30 -1.1 89 89 W 20 31 29.85 1011 1 2 N/A
11:06 am 11:06 Cloudy with Snow 32 undefined 30 -1.1 92 92 W 17 28 29.85 1011 1 1 0.01 0.25
11:29 am 11:29 Cloudy with Light Snow 33 0.6 31 -0.6 92 92 W 16 26 29.85 1011 2 3 0.02 0.51
11:41 am 11:41 Windy with Snow Likely 33 0.6 30 -1.1 89 89 W 20 31 29.85 1011 1 2 0.02 0.51
11:52 am 11:52 Windy with Snow Likely 33 0.6 29 -1.7 85 85 W 22 35 29.85 1011 1 2 0.03 0.76
12:02 pm 12:02 Cloudy with Light Snow 34 1.1 30 -1.1 85 85 W 18 30 29.88 1012 8 13 N/A
12:32 pm 12:32 Windy with Snow Likely 34 1.1 28 -2.2 79 79 W 21 33 29.88 1012 2 3 N/A
12:52 pm 12:52 Cloudy with Light Snow 33 0.6 29 -1.7 85 85 W 15 24 29.86 1011 1 2 N/A
1:14 pm 13:14 Cloudy with Light Snow 31 -0.6 29 -1.7 92 92 WNW 18 30 29.88 1012 1 1 0.03 0.76
1:37 pm 13:37 Cloudy with Light Snow 32 undefined 28 -2.2 85 85 W 18 30 29.88 1012 1 2 0.04 1.02
1:52 pm 13:52 Windy with Snow Likely 33 0.6 30 -1.1 89 89 W 22 35 29.86 1011 1 2 0.04 1.02
1:54 pm 13:54 Windy with Snow Likely 33 0.6 30 -1.1 89 89 W 25 41 29.88 1012 1 2 N/A
2:08 pm 14:08 Cloudy with Light Snow 34 1.1 29 -1.7 82 82 W 18 30 29.88 1012 3 4 N/A
2:23 pm 14:23 Cloudy with Light Snow 34 1.1 28 -2.2 79 79 W 17 28 29.88 1012 7 11 N/A
2:52 pm 14:52 Windy with Snow Likely 35 1.7 27 -2.8 72 72 W 21 33 29.87 1012 9 14 N/A
3:52 pm 15:52 Cloudy 36 2.2 27 -2.8 70 70 W 23 37 29.88 1012 10 16 N/A
4:42 pm 16:42 Windy with Snow Likely 35 1.7 26 -3.3 70 70 WNW 21 33 29.91 1013 2 3 N/A
4:47 pm 16:47 Cloudy with Light Snow 34 1 28 -2 81 81 WNW 16 26 29.91 1013 5 8 N/A
4:52 pm 16:52 Cloudy with Light Snow 35 1.7 28 -2.2 76 76 WNW 17 28 29.89 1012 8 13 N/A
5:07 pm 17:07 Windy with Snow Likely 35 1.7 28 -2.2 76 76 W 28 44 29.91 1013 2 3 N/A
5:09 pm 17:09 Windy with Snow Likely 33 0.6 27 -2.8 78 78 W 25 41 29.91 1013 1 2 N/A
5:13 pm 17:13 Cloudy with Light Snow 32 undefined 25 -3.9 75 75 W 17 28 29.91 1013 7 11 0.01 0.25
5:19 pm 17:19 Cloudy 34 1.1 25 -3.9 70 70 W 17 28 29.94 1014 10 16 0.01 0.25
5:52 pm 17:52 Cloudy 36 2.2 26 -3.3 67 67 W 16 26 29.91 1013 9 14 0.01 0.25
6:52 pm 18:52 Cloudy with Light Snow 35 1.7 23 -5 61 61 W 18 30 29.94 1014 9 14 N/A
7:52 pm 19:52 Cloudy with Light Snow 34 1.1 24 -4.4 67 67 W 15 24 29.96 1015 9 14 N/A
8:46 pm 20:46 Cloudy 34 1 25 -4 70 70 W 14 22 30.00 1016 10 16 N/A
8:52 pm 20:52 Cloudy 33 0.6 24 -4.4 70 70 W 13 20 29.98 1015 10 16 N/A
9:42 pm 21:42 Cloudy 33 0.6 24 -4.4 70 70 W 16 26 30.00 1016 10 16 N/A
9:52 pm 21:52 Cloudy 33 0.6 24 -4.4 70 70 W 15 24 29.99 1016 10 16 N/A
10:17 pm 22:17 Cloudy with Light Snow 33 0.6 24 -4.4 70 70 W 13 20 30.00 1016 9 14 N/A
10:52 pm 22:52 Cloudy with Light Snow 33 0.6 24 -4.4 70 70 WSW 12 19 29.99 1016 9 14 N/A
11:52 pm 23:52 Cloudy with Light Snow 33 0.6 23 -5 66 66 W 13 20 29.99 1016 9 14 N/A

Powered by AerisWeather